TimeEST,TemperatureF,Dew PointF,Humidity,Sea Level PressureIn,VisibilityMPH,Wind Direction,Wind SpeedMPH,Gust SpeedMPH,PrecipitationIn,Events,Conditions,WindDirDegrees,DateUTC
12:53 AM,23.0,17.1,78,30.45,10.0,SW,8.1,-,N/A,,Overcast,220,2011-12-11 05:53:00
1:53 AM,21.0,16.0,81,30.48,10.0,SSW,8.1,-,N/A,,Clear,210,2011-12-11 06:53:00
2:53 AM,19.9,14.0,78,30.49,10.0,SSW,5.8,-,N/A,,Clear,210,2011-12-11 07:53:00
3:53 AM,19.9,15.1,81,30.50,10.0,SSW,6.9,-,N/A,,Clear,210,2011-12-11 08:53:00
4:53 AM,19.9,14.0,78,30.50,10.0,SSW,6.9,-,N/A,,Clear,210,2011-12-11 09:53:00
5:53 AM,19.0,14.0,81,30.53,10.0,SSW,3.5,-,N/A,,Clear,200,2011-12-11 10:53:00
6:53 AM,18.0,14.0,84,30.54,10.0,South,3.5,-,N/A,,Clear,180,2011-12-11 11:53:00
7:53 AM,21.0,16.0,81,30.54,10.0,SSW,5.8,-,N/A,,Overcast,200,2011-12-11 12:53:00
8:53 AM,25.0,18.0,75,30.55,10.0,SSW,10.4,-,N/A,,Overcast,200,2011-12-11 13:53:00
9:53 AM,28.4,19.4,69,30.52,10.0,SSW,10.4,-,N/A,,Overcast,200,2011-12-11 14:53:00
10:53 AM,28.9,21.9,75,30.53,10.0,South,10.4,-,N/A,,Overcast,190,2011-12-11 15:53:00
11:53 AM,32.0,24.8,75,30.49,10.0,SSW,12.7,17.3,N/A,,Overcast,200,2011-12-11 16:53:00
12:53 PM,33.1,24.1,70,30.48,10.0,SSW,18.4,26.5,N/A,,Mostly Cloudy,210,2011-12-11 17:53:00
1:30 PM,33.8,24.8,70,30.44,10.0,SSW,19.6,26.5,N/A,,Scattered Clouds,210,2011-12-11 18:30:00
1:53 PM,34.0,25.0,70,30.45,10.0,SSW,21.9,29.9,N/A,,Partly Cloudy,210,2011-12-11 18:53:00
2:53 PM,34.0,24.1,67,30.45,10.0,SW,20.7,25.3,N/A,,Partly Cloudy,220,2011-12-11 19:53:00
3:53 PM,34.0,23.0,64,30.44,10.0,SSW,19.6,27.6,N/A,,Clear,210,2011-12-11 20:53:00
4:53 PM,33.8,23.0,65,30.41,10.0,SW,23.0,32.2,N/A,,Clear,220,2011-12-11 21:53:00
5:53 PM,32.0,21.9,66,30.44,10.0,SSW,13.8,-,N/A,,Clear,210,2011-12-11 22:53:00
6:53 PM,32.0,21.9,66,30.43,10.0,SSW,15.0,-,N/A,,Clear,210,2011-12-11 23:53:00
7:53 PM,32.0,19.9,61,30.42,10.0,SW,13.8,-,N/A,,Clear,220,2011-12-12 00:53:00
8:53 PM,32.0,19.0,59,30.42,10.0,SW,10.4,-,N/A,,Clear,220,2011-12-12 01:53:00
9:53 PM,33.1,18.0,54,30.41,10.0,SSW,16.1,-,N/A,,Clear,210,2011-12-12 02:53:00
10:53 PM,34.0,18.0,52,30.41,10.0,SSW,16.1,24.2,N/A,,Clear,210,2011-12-12 03:53:00
11:53 PM,34.0,17.1,50,30.41,10.0,SW,17.3,-,N/A,,Clear,220,2011-12-12 04:53:00